Change the Weather History Date:

Saturday, September 7, 2013

  Actual Average Record
Temperature  
Mean Temperature 68 °F -  
Max Temperature 80 °F 69 °F 87 °F (2002)
Min Temperature 55 °F 51 °F 36 °F (1956)
Cooling Degree Days 2    
Growing Degree Days 18 (Base 50)    
Moisture  
Dew Point 61 °F    
Average Humidity 80    
Maximum Humidity 88    
Minimum Humidity 61    
Precipitation  
Precipitation 0.00 in - - ()
Sea Level Pressure  
Sea Level Pressure 29.98 in    
Wind  
Wind Speed 4 mph (NE)    
Max Wind Speed 18 mph    
Max Gust Speed 25 mph    
Visibility 10 miles    
Events      
Averages and records for this station are not official NWS values.
T = Trace of Precipitation, MM = Missing Value Source: NWS Daily Summary

Daily Weather History Graph

Daily Weather History Graph

Search for Another Location

Airport or City:

Trip Planner

Search our weather history database for the weather conditions in past years. The results will help you decide how hot, cold, wet, or windy it might be!

Date:

Astronomy

Sep. 07, 2013 Rise Set
Actual Time 6:34 AM CDT 7:34 PM CDT
Civil Twilight 6:03 AM CDT 8:05 PM CDT
Nautical Twilight 5:26 AM CDT 8:42 PM CDT
Astronomical Twilight 4:46 AM CDT 9:21 PM CDT
Moon 9:01 AM CDT (9/7) 8:18 PM CDT (9/7)
Length of Visible Light 14h 01m
Length of Day
12h 59m
Waxing Crescent, 5% of the Moon is Illuminated
Sep 7
Waxing Crescent
Sep 12
First Quarter
Sep 19
Full
Sep 26
Last Quarter
Oct 4
New

Hourly Weather History & Observations

Time (CDT) Temp. Heat Index Dew Point Humidity Pressure Visibility Wind Dir Wind Speed Gust Speed Precip Events Conditions
12:14 AM 73.4 °F - 66.2 °F 78% 29.87 in 10.0 mi Calm Calm - N/A   Clear
12:33 AM 73.4 °F - 66.2 °F 78% 29.87 in 10.0 mi NW 3.5 mph - N/A   Clear
12:53 AM 71.6 °F - 66.2 °F 83% 29.87 in 10.0 mi Calm Calm - N/A   Clear
1:14 AM 71.6 °F - 66.2 °F 83% 29.87 in 10.0 mi Calm Calm - N/A   Clear
1:33 AM 71.6 °F - 66.2 °F 83% 29.86 in 10.0 mi NW 3.5 mph - N/A   Clear
1:53 AM 69.8 °F - 66.2 °F 88% 29.86 in 10.0 mi Calm Calm - N/A   Clear
2:14 AM 69.8 °F - 64.4 °F 83% 29.86 in 10.0 mi Calm Calm - N/A   Clear
2:33 AM 69.8 °F - 64.4 °F 83% 29.85 in 10.0 mi NW 3.5 mph - N/A   Clear
2:53 AM 69.8 °F - 64.4 °F 83% 29.85 in 10.0 mi NW 3.5 mph - N/A   Clear
3:14 AM 66.2 °F - 62.6 °F 88% 29.86 in 10.0 mi Calm Calm - N/A   Clear
3:33 AM 69.8 °F - 64.4 °F 83% 29.86 in 10.0 mi Calm Calm - N/A   Clear
3:53 AM 69.8 °F - 64.4 °F 83% 29.86 in 10.0 mi NW 3.5 mph - N/A   Clear
4:14 AM 69.8 °F - 64.4 °F 83% 29.87 in 10.0 mi Calm Calm - N/A   Clear
4:33 AM 69.8 °F - 64.4 °F 83% 29.87 in 10.0 mi NW 3.5 mph - N/A   Clear
4:53 AM 69.8 °F - 64.4 °F 83% 29.87 in 10.0 mi Calm Calm - N/A   Clear
5:14 AM 69.8 °F - 64.4 °F 83% 29.87 in 10.0 mi NNW 3.5 mph - N/A   Clear
5:33 AM 69.8 °F - 64.4 °F 83% 29.87 in 10.0 mi Calm Calm - N/A   Clear
5:53 AM 69.8 °F - 62.6 °F 78% 29.87 in 10.0 mi NNW 3.5 mph - N/A   Clear
6:14 AM 69.8 °F - 62.6 °F 78% 29.88 in 10.0 mi Calm Calm - N/A   Clear
6:33 AM 69.8 °F - 62.6 °F 78% 29.89 in 10.0 mi North 3.5 mph - N/A   Clear
6:53 AM 66.2 °F - 62.6 °F 88% 29.89 in 10.0 mi Calm Calm - N/A   Clear
7:12 AM 66.2 °F - 60.8 °F 83% 29.90 in 10.0 mi Calm Calm - N/A   Clear
7:33 AM 66.2 °F - 60.8 °F 83% 29.90 in 10.0 mi Calm Calm - N/A   Clear
7:53 AM 68.0 °F - 62.6 °F 83% 29.90 in 10.0 mi Calm Calm - N/A   Clear
8:13 AM 71.6 °F - 64.4 °F 78% 29.90 in 10.0 mi Calm Calm - N/A   Clear
8:34 AM 71.6 °F - 64.4 °F 78% 29.91 in 10.0 mi SE 3.5 mph - N/A   Clear
8:53 AM 73.4 °F - 64.4 °F 73% 29.91 in 10.0 mi Calm Calm - N/A   Clear
9:13 AM 75.2 °F - 64.4 °F 69% 29.92 in 10.0 mi Calm Calm - N/A   Clear
9:34 AM 73.4 °F - 64.4 °F 73% 29.92 in 10.0 mi Calm Calm - N/A   Scattered Clouds
9:53 AM 77.0 °F - 66.2 °F 69% 29.93 in 10.0 mi Calm Calm - N/A   Mostly Cloudy
10:13 AM 78.8 °F - 66.2 °F 65% 29.94 in 10.0 mi Calm Calm - N/A   Mostly Cloudy
10:34 AM 80.6 °F 82.7 °F 66.2 °F 61% 29.94 in 10.0 mi Calm Calm - N/A   Scattered Clouds
10:53 AM 78.8 °F - 66.2 °F 65% 29.94 in 10.0 mi SE 5.8 mph - N/A   Mostly Cloudy
11:13 AM 78.8 °F - 66.2 °F 65% 29.95 in 10.0 mi East 6.9 mph - N/A   Scattered Clouds
11:34 AM 78.8 °F - 66.2 °F 65% 29.96 in 10.0 mi East 10.4 mph - N/A   Scattered Clouds
11:53 AM 77.0 °F - 66.2 °F 69% 29.97 in 10.0 mi East 11.5 mph 16.1 mph N/A   Scattered Clouds
12:13 PM 75.2 °F - 64.4 °F 69% 29.97 in 10.0 mi East 12.7 mph - N/A   Mostly Cloudy
12:34 PM 77.0 °F - 66.2 °F 69% 29.98 in 10.0 mi ENE 16.1 mph - N/A   Mostly Cloudy
12:53 PM 73.4 °F - 64.4 °F 73% 29.99 in 10.0 mi ENE 12.7 mph 25.3 mph N/A   Mostly Cloudy
1:13 PM 69.8 °F - 62.6 °F 78% 30.01 in 10.0 mi East 17.3 mph - N/A   Overcast
1:33 PM 69.8 °F - 62.6 °F 78% 30.01 in 10.0 mi ENE 18.4 mph 24.2 mph N/A   Overcast
1:53 PM 68.0 °F - 60.8 °F 78% 30.02 in 10.0 mi ENE 16.1 mph 23.0 mph N/A   Overcast
2:13 PM 66.2 °F - 60.8 °F 83% 30.02 in 10.0 mi ENE 10.4 mph 18.4 mph N/A   Overcast
2:33 PM 66.2 °F - 60.8 °F 83% 30.03 in 10.0 mi East 13.8 mph 23.0 mph N/A   Overcast
2:53 PM 64.4 °F - 59.0 °F 83% 30.03 in 10.0 mi ENE 12.7 mph 20.7 mph N/A   Overcast
3:13 PM 64.4 °F - 59.0 °F 83% 30.04 in 10.0 mi ENE 11.5 mph 19.6 mph N/A   Overcast
3:33 PM 64.4 °F - 59.0 °F 83% 30.04 in 10.0 mi ENE 17.3 mph 21.9 mph N/A   Overcast
3:53 PM 64.4 °F - 59.0 °F 83% 30.05 in 10.0 mi ENE 11.5 mph 18.4 mph N/A   Overcast
4:13 PM 64.4 °F - 59.0 °F 83% 30.05 in 10.0 mi East 9.2 mph - N/A   Overcast
4:33 PM 64.4 °F - 59.0 °F 83% 30.05 in 10.0 mi ENE 11.5 mph - N/A   Overcast
4:53 PM 66.2 °F - 59.0 °F 78% 30.05 in 10.0 mi ENE 10.4 mph - N/A   Mostly Cloudy
5:13 PM 66.2 °F - 59.0 °F 78% 30.06 in 10.0 mi ENE 10.4 mph - N/A   Scattered Clouds
5:33 PM 66.2 °F - 59.0 °F 78% 30.06 in 10.0 mi East 11.5 mph - N/A   Scattered Clouds
5:53 PM 66.2 °F - 57.2 °F 73% 30.07 in 10.0 mi East 11.5 mph - N/A   Scattered Clouds
6:13 PM 64.4 °F - 57.2 °F 77% 30.07 in 10.0 mi ENE 11.5 mph - N/A   Clear
6:33 PM 64.4 °F - 57.2 °F 77% 30.08 in 10.0 mi East 6.9 mph - N/A   Clear
6:53 PM 62.6 °F - 55.4 °F 77% 30.08 in 10.0 mi ENE 5.8 mph - N/A   Clear
7:13 PM 62.6 °F - 55.4 °F 77% 30.09 in 10.0 mi ENE 4.6 mph - N/A   Clear
7:33 PM 60.8 °F - 55.4 °F 82% 30.09 in 10.0 mi NE 3.5 mph - N/A   Clear
7:53 PM 60.8 °F - 55.4 °F 82% 30.10 in 10.0 mi NE 4.6 mph - N/A   Clear
8:14 PM 59.0 °F - 55.4 °F 88% 30.11 in 10.0 mi NNE 4.6 mph - N/A   Clear
8:33 PM 59.0 °F - 53.6 °F 82% 30.12 in 10.0 mi North 4.6 mph - N/A   Clear
8:53 PM 57.2 °F - 53.6 °F 88% 30.12 in 10.0 mi North 4.6 mph - N/A   Clear
9:14 PM 57.2 °F - 53.6 °F 88% 30.11 in 10.0 mi North 4.6 mph - N/A   Clear
9:33 PM 57.2 °F - 51.8 °F 82% 30.11 in 10.0 mi NNE 4.6 mph - N/A   Clear
9:53 PM 57.2 °F - 51.8 °F 82% 30.12 in 10.0 mi NNE 4.6 mph - N/A   Clear
10:14 PM 55.4 °F - 51.8 °F 88% 30.13 in 10.0 mi North 4.6 mph - N/A   Clear
10:33 PM 55.4 °F - 51.8 °F 88% 30.13 in 10.0 mi North 4.6 mph - N/A   Clear
10:53 PM 55.4 °F - 51.8 °F 88% 30.13 in 10.0 mi North 4.6 mph - N/A   Clear
11:14 PM 55.4 °F - 51.8 °F 88% 30.12 in 10.0 mi North 4.6 mph - N/A   Clear
11:33 PM 55.4 °F - 51.8 °F 88% 30.13 in 10.0 mi North 4.6 mph - N/A   Clear
11:53 PM 55.4 °F - 51.8 °F 88% 30.12 in 10.0 mi North 4.6 mph - N/A   Clear